| time (UTC) | temp C | wind direction | speed KPH | gust KPH | rain 1hr cm | rain 24hr cm | rain mn cm | humidity % | barometer mb |
| 20260508211526 | 24 | 277 | 14.5 | 30.6 | 0.00 | 0.00 | 0.00 | 23 | 1007.7 |
| 20260508211011 | 24 | 283 | 9.7 | 27.4 | 0.00 | 0.00 | 0.00 | 24 | 1007.7 |
| 20260508210508 | 23 | 273 | 14.5 | 27.4 | 0.00 | 0.00 | 0.00 | 25 | 1007.8 |
| 20260508210027 | 23 | 302 | 14.5 | 30.6 | 0.00 | 0.00 | 0.00 | 26 | 1007.8 |
| 20260508205512 | 23 | 306 | 20.9 | 30.6 | 0.00 | 0.00 | 0.00 | 26 | 1007.8 |
| 20260508205012 | 23 | 304 | 9.7 | 24.1 | 0.00 | 0.00 | 0.00 | 27 | 1008.0 |
| 20260508204533 | 23 | 278 | 11.3 | 35.4 | 0.00 | 0.00 | 0.00 | 26 | 1008.0 |
| 20260508204005 | 24 | 307 | 22.5 | 35.4 | 0.00 | 0.00 | 0.00 | 25 | 1008.0 |
| 20260508203507 | 23 | 292 | 8.0 | 27.4 | 0.00 | 0.00 | 0.00 | 28 | 1008.0 |
| 20260508203022 | 23 | 313 | 11.3 | 33.8 | 0.00 | 0.00 | 0.00 | 28 | 1008.1 |
| 20260508202506 | 23 | 9 | 17.7 | 33.8 | 0.00 | 0.00 | 0.00 | 27 | 1008.2 |
| 20260508202009 | 22 | 298 | 14.5 | 29.0 | 0.00 | 0.00 | 0.00 | 30 | 1008.2 |
| 20260508201527 | 22 | 344 | 14.5 | 29.0 | 0.00 | 0.00 | 0.00 | 29 | 1008.3 |
| 20260508201009 | 23 | 309 | 14.5 | 29.0 | 0.00 | 0.00 | 0.00 | 30 | 1008.3 |
| 20260508200507 | 23 | 348 | 16.1 | 29.0 | 0.00 | 0.00 | 0.00 | 28 | 1008.3 |
| 20260508200037 | 23 | 313 | 16.1 | 29.0 | 0.00 | 0.00 | 0.00 | 30 | 1008.4 |
| 20260508195509 | 23 | 300 | 16.1 | 29.0 | 0.00 | 0.00 | 0.00 | 30 | 1008.4 |
| 20260508195008 | 23 | 327 | 11.3 | 20.9 | 0.00 | 0.00 | 0.00 | 29 | 1008.4 |
| 20260508194526 | 23 | 300 | 6.4 | 20.9 | 0.00 | 0.00 | 0.00 | 30 | 1008.5 |
| 20260508194014 | 23 | 5 | 11.3 | 27.4 | 0.00 | 0.00 | 0.00 | 31 | 1008.5 |
| 20260508193508 | 23 | 360 | 17.7 | 27.4 | 0.00 | 0.00 | 0.00 | 29 | 1008.5 |
| 20260508193025 | 23 | 315 | 4.8 | 24.1 | 0.00 | 0.00 | 0.00 | 28 | 1008.6 |
| 20260508192515 | 23 | 254 | 1.6 | 22.5 | 0.00 | 0.00 | 0.00 | 27 | 1008.8 |
| 20260508192012 | 23 | 311 | 6.4 | 24.1 | 0.00 | 0.00 | 0.00 | 28 | 1008.8 |
| 20260508191520 | 23 | 245 | 12.9 | 24.1 | 0.00 | 0.00 | 0.00 | 29 | 1008.9 |
| 20260508191006 | 23 | 304 | 9.7 | 27.4 | 0.00 | 0.00 | 0.00 | 29 | 1008.9 |
| 20260508190513 | 23 | 249 | 12.9 | 27.4 | 0.00 | 0.00 | 0.00 | 28 | 1008.9 |
| 20260508190025 | 23 | 315 | 11.3 | 24.1 | 0.00 | 0.00 | 0.00 | 28 | 1009.1 |
| 20260508185509 | 23 | 313 | 11.3 | 32.2 | 0.00 | 0.00 | 0.00 | 28 | 1009.0 |
| 20260508185010 | 22 | 344 | 19.3 | 32.2 | 0.00 | 0.00 | 0.00 | 27 | 1009.0 |
| 20260508184528 | 22 | 240 | 9.7 | 29.0 | 0.00 | 0.00 | 0.00 | 29 | 1009.0 |
| 20260508184011 | 22 | 273 | 14.5 | 27.4 | 0.00 | 0.00 | 0.00 | 29 | 1009.1 |
| 20260508183508 | 22 | 30 | 17.7 | 27.4 | 0.00 | 0.00 | 0.00 | 29 | 1009.1 |
| 20260508183028 | 22 | 336 | 12.9 | 24.1 | 0.00 | 0.00 | 0.00 | 29 | 1009.3 |
| 20260508182511 | 22 | 315 | 6.4 | 20.9 | 0.00 | 0.00 | 0.00 | 31 | 1009.4 |
| 20260508182009 | 22 | 312 | 6.4 | 22.5 | 0.00 | 0.00 | 0.00 | 30 | 1009.4 |
| 20260508181521 | 22 | 219 | 8.0 | 22.5 | 0.00 | 0.00 | 0.00 | 29 | 1009.5 |
| 20260508181014 | 22 | 273 | 9.7 | 25.7 | 0.00 | 0.00 | 0.00 | 32 | 1009.5 |
| 20260508180509 | 22 | 11 | 9.7 | 25.7 | 0.00 | 0.00 | 0.00 | 30 | 1009.5 |
| 20260508180022 | 22 | 285 | 4.8 | 22.5 | 0.00 | 0.00 | 0.00 | 32 | 1009.6 |
| 20260508175511 | 21 | 282 | 6.4 | 19.3 | 0.00 | 0.00 | 0.00 | 32 | 1009.6 |
| 20260508175010 | 21 | 268 | 11.3 | 19.3 | 0.00 | 0.00 | 0.00 | 31 | 1009.7 |
| 20260508174527 | 22 | 235 | 4.8 | 20.9 | 0.00 | 0.00 | 0.00 | 32 | 1009.7 |
| 20260508174013 | 22 | 299 | 8.0 | 22.5 | 0.00 | 0.00 | 0.00 | 32 | 1009.8 |
| 20260508173511 | 22 | 320 | 11.3 | 22.5 | 0.00 | 0.00 | 0.00 | 31 | 1009.9 |
| 20260508173018 | 21 | 276 | 11.3 | 22.5 | 0.00 | 0.00 | 0.00 | 32 | 1009.9 |
| 20260508172506 | 21 | 317 | 1.6 | 17.7 | 0.00 | 0.00 | 0.00 | 32 | 1010.0 |
| 20260508172005 | 21 | 286 | 8.0 | 16.1 | 0.00 | 0.00 | 0.00 | 31 | 1010.0 |
| 20260508171531 | 21 | 294 | 3.2 | 17.7 | 0.00 | 0.00 | 0.00 | 32 | 1010.1 |
| 20260508171010 | 21 | 304 | 3.2 | 20.9 | 0.00 | 0.00 | 0.00 | 31 | 1010.1 |
| 20260508170505 | 21 | 18 | 8.0 | 20.9 | 0.00 | 0.00 | 0.00 | 33 | 1010.1 |
| 20260508170027 | 21 | 319 | 9.7 | 17.7 | 0.00 | 0.00 | 0.00 | 32 | 1010.1 |
| 20260508165507 | 21 | 308 | 3.2 | 22.5 | 0.00 | 0.00 | 0.00 | 35 | 1010.1 |
| 20260508165007 | 20 | 305 | 4.8 | 22.5 | 0.00 | 0.00 | 0.00 | 32 | 1010.2 |
| 20260508164525 | 20 | 331 | 4.8 | 20.9 | 0.00 | 0.00 | 0.00 | 33 | 1010.3 |
| 20260508164009 | 21 | 331 | 12.9 | 20.9 | 0.00 | 0.00 | 0.00 | 32 | 1010.3 |
| 20260508163512 | 21 | 323 | 11.3 | 25.7 | 0.00 | 0.00 | 0.00 | 32 | 1010.4 |
| 20260508163027 | 21 | 312 | 11.3 | 25.7 | 0.00 | 0.00 | 0.00 | 33 | 1010.3 |
| 20260508162510 | 20 | 338 | 8.0 | 16.1 | 0.00 | 0.00 | 0.00 | 35 | 1010.4 |
| 20260508162008 | 20 | 342 | 1.6 | 14.5 | 0.00 | 0.00 | 0.00 | 34 | 1010.3 |
| 20260508161530 | 20 | 355 | 4.8 | 14.5 | 0.00 | 0.00 | 0.00 | 34 | 1010.4 |
| 20260508161007 | 20 | 360 | 1.6 | 19.3 | 0.00 | 0.00 | 0.00 | 34 | 1010.3 |
| 20260508160505 | 20 | 348 | 1.6 | 19.3 | 0.00 | 0.00 | 0.00 | 34 | 1010.5 |
| 20260508160021 | 20 | 360 | 8.0 | 17.7 | 0.00 | 0.00 | 0.00 | 34 | 1010.4 |
| 20260508155506 | 20 | 38 | 1.6 | 8.0 | 0.00 | 0.00 | 0.00 | 34 | 1010.3 |
| 20260508155011 | 20 | 44 | 1.6 | 9.7 | 0.00 | 0.00 | 0.00 | 33 | 1010.4 |
| 20260508154524 | 20 | 53 | 4.8 | 12.9 | 0.00 | 0.00 | 0.00 | 34 | 1010.3 |
| 20260508154012 | 20 | 72 | 1.6 | 12.9 | 0.00 | 0.00 | 0.00 | 34 | 1010.3 |
| 20260508153509 | 20 | 80 | 3.2 | 12.9 | 0.00 | 0.00 | 0.00 | 33 | 1010.2 |
| 20260508153025 | 20 | 104 | 0.0 | 9.7 | 0.00 | 0.00 | 0.00 | 33 | 1010.2 |
| 20260508152512 | 20 | 115 | 1.6 | 4.8 | 0.00 | 0.00 | 0.00 | 31 | 1010.2 |
| 20260508152009 | 20 | 121 | 0.0 | 3.2 | 0.00 | 0.00 | 0.00 | 33 | 1010.2 |
| 20260508151528 | 19 | 121 | 0.0 | 3.2 | 0.00 | 0.00 | 0.00 | 34 | 1010.2 |
| 20260508151012 | 19 | 124 | 0.0 | 3.2 | 0.00 | 0.00 | 0.00 | 32 | 1010.3 |
| 20260508150508 | 18 | 123 | 0.0 | 3.2 | 0.00 | 0.00 | 0.00 | 33 | 1010.3 |
| 20260508150023 | 18 | 123 | 0.0 | 4.8 | 0.00 | 0.00 | 0.00 | 34 | 1010.3 |
| 20260508145504 | 18 | 123 | 1.6 | 4.8 | 0.00 | 0.00 | 0.00 | 33 | 1010.4 |
| 20260508145004 | 18 | 123 | 0.0 | 6.4 | 0.00 | 0.00 | 0.00 | 35 | 1010.5 |
| 20260508144510 | 18 | 122 | 1.6 | 11.3 | 0.00 | 0.00 | 0.00 | 35 | 1010.5 |
| 20260508144003 | 18 | 122 | 1.6 | 11.3 | 0.00 | 0.00 | 0.00 | 34 | 1010.5 |
| 20260508143504 | 17 | 121 | 1.6 | 9.7 | 0.00 | 0.00 | 0.00 | 36 | 1010.4 |
| 20260508142504 | 17 | 117 | 4.8 | 12.9 | 0.00 | 0.00 | 0.00 | 35 | 1010.4 |
| 20260508142007 | 17 | 115 | 1.6 | 12.9 | 0.00 | 0.00 | 0.00 | 37 | 1010.5 |
| 20260508141520 | 17 | 113 | 4.8 | 12.9 | 0.00 | 0.00 | 0.00 | 38 | 1010.5 |
| 20260508141008 | 16 | 109 | 4.8 | 11.3 | 0.00 | 0.00 | 0.00 | 38 | 1010.4 |
| 20260508140504 | 16 | 109 | 3.2 | 11.3 | 0.00 | 0.00 | 0.00 | 39 | 1010.3 |
| 20260508140015 | 16 | 110 | 4.8 | 11.3 | 0.00 | 0.00 | 0.00 | 39 | 1010.3 |
| 20260508135512 | 15 | 107 | 3.2 | 12.9 | 0.00 | 0.00 | 0.00 | 40 | 1010.3 |
| 20260508135008 | 15 | 99 | 1.6 | 12.9 | 0.00 | 0.00 | 0.00 | 42 | 1010.3 |
| 20260508134521 | 15 | 84 | 3.2 | 11.3 | 0.00 | 0.00 | 0.00 | 42 | 1010.3 |
| 20260508134003 | 14 | 57 | 1.6 | 6.4 | 0.00 | 0.00 | 0.00 | 45 | 1010.2 |
| 20260508133503 | 14 | 32 | 3.2 | 6.4 | 0.00 | 0.00 | 0.00 | 45 | 1010.2 |
| 20260508133008 | 13 | 67 | 1.6 | 6.4 | 0.00 | 0.00 | 0.00 | 46 | 1010.3 |
| 20260508132503 | 13 | 67 | 3.2 | 6.4 | 0.00 | 0.00 | 0.00 | 46 | 1010.1 |
| 20260508132003 | 13 | 56 | 1.6 | 4.8 | 0.00 | 0.00 | 0.00 | 48 | 1010.1 |
| 20260508131510 | 12 | 44 | 0.0 | 4.8 | 0.00 | 0.00 | 0.00 | 50 | 1010.0 |
| 20260508131010 | 12 | 43 | 1.6 | 4.8 | 0.00 | 0.00 | 0.00 | 51 | 1010.0 |
| 20260508130506 | 11 | 360 | 1.6 | 8.0 | 0.00 | 0.00 | 0.00 | 50 | 1009.8 |
| 20260508130019 | 11 | 43 | 1.6 | 8.0 | 0.00 | 0.00 | 0.00 | 50 | 1009.8 |
| 20260508125506 | 11 | 360 | 1.6 | 4.8 | 0.00 | 0.00 | 0.00 | 51 | 1009.7 |
| 20260508125009 | 11 | 360 | 1.6 | 4.8 | 0.00 | 0.00 | 0.00 | 51 | 1009.8 |
| 20260508124517 | 11 | 360 | 1.6 | 4.8 | 0.00 | 0.00 | 0.00 | 52 | 1010.0 |
| 20260508124007 | 11 | 360 | 1.6 | 3.2 | 0.00 | 0.00 | 0.00 | 53 | 1010.0 |
| 20260508123509 | 10 | 47 | 1.6 | 3.2 | 0.00 | 0.00 | 0.00 | 54 | 1010.0 |
| 20260508123007 | 10 | 37 | 0.0 | 4.8 | 0.00 | 0.00 | 0.00 | 55 | 1010.0 |
| 20260508122503 | 10 | 37 | 0.0 | 4.8 | 0.00 | 0.00 | 0.00 | 55 | 1010.1 |
| 20260508122004 | 10 | 23 | 1.6 | 4.8 | 0.00 | 0.00 | 0.00 | 55 | 1010.2 |
| 20260508121516 | 10 | 28 | 1.6 | 11.3 | 0.00 | 0.00 | 0.00 | 54 | 1010.0 |
| 20260508121003 | 10 | 19 | 4.8 | 14.5 | 0.00 | 0.00 | 0.00 | 54 | 1010.1 |
| 20260508120504 | 10 | 15 | 8.0 | 16.1 | 0.00 | 0.00 | 0.00 | 53 | 1010.1 |
| 20260508120017 | 10 | 16 | 9.7 | 16.1 | 0.00 | 0.00 | 0.00 | 54 | 1009.9 |
| 20260508115506 | 10 | 13 | 4.8 | 14.5 | 0.00 | 0.00 | 0.00 | 55 | 1009.9 |
| 20260508115004 | 10 | 14 | 9.7 | 17.7 | 0.00 | 0.00 | 0.00 | 54 | 1009.9 |
| 20260508114529 | 10 | 16 | 6.4 | 17.7 | 0.00 | 0.00 | 0.00 | 54 | 1009.8 |
| 20260508114006 | 10 | 338 | 4.8 | 9.7 | 0.00 | 0.00 | 0.00 | 54 | 1009.7 |
| 20260508113507 | 10 | 355 | 1.6 | 9.7 | 0.00 | 0.00 | 0.00 | 55 | 1009.7 |
| 20260508113030 | 10 | 350 | 1.6 | 9.7 | 0.00 | 0.00 | 0.00 | 56 | 1009.7 |
| 20260508112507 | 10 | 344 | 1.6 | 6.4 | 0.00 | 0.00 | 0.00 | 55 | 1009.6 |
| 20260508112003 | 10 | 355 | 1.6 | 6.4 | 0.00 | 0.00 | 0.00 | 54 | 1009.5 |
| 20260508111508 | 10 | 360 | 1.6 | 6.4 | 0.00 | 0.00 | 0.00 | 57 | 1009.4 |
| 20260508110504 | 10 | 15 | 1.6 | 6.4 | 0.00 | 0.00 | 0.00 | 56 | 1009.4 |
| 20260508110006 | 10 | 19 | 1.6 | 4.8 | 0.00 | 0.00 | 0.00 | 53 | 1009.4 |
| 20260508105503 | 10 | 19 | 1.6 | 4.8 | 0.00 | 0.00 | 0.00 | 53 | 1009.3 |
| 20260508105005 | 10 | 21 | 1.6 | 3.2 | 0.00 | 0.00 | 0.00 | 53 | 1009.1 |
| 20260508104515 | 10 | 22 | 0.0 | 3.2 | 0.00 | 0.00 | 0.00 | 53 | 1009.0 |
| 20260508104006 | 10 | 360 | 0.0 | 3.2 | 0.00 | 0.00 | 0.00 | 53 | 1008.9 |
| 20260508103506 | 11 | 26 | 0.0 | 4.8 | 0.00 | 0.00 | 0.00 | 53 | 1008.9 |
| 20260508103026 | 11 | 22 | 1.6 | 16.1 | 0.00 | 0.00 | 0.00 | 53 | 1008.9 |
| 20260508101532 | 11 | 360 | 1.6 | 12.9 | 0.00 | 0.00 | 0.00 | 55 | 1008.9 |
| 20260508100502 | 11 | 360 | 1.6 | 3.2 | 0.00 | 0.00 | 0.00 | 55 | 1008.7 |
| 20260508100008 | 11 | 27 | 1.6 | 3.2 | 0.00 | 0.00 | 0.00 | 54 | 1008.7 |
| 20260508095506 | 11 | 26 | 1.6 | 3.2 | 0.00 | 0.00 | 0.00 | 53 | 1008.7 |
| 20260508095004 | 11 | 26 | 1.6 | 3.2 | 0.00 | 0.00 | 0.00 | 53 | 1008.7 |
| 20260508094510 | 11 | 25 | 1.6 | 3.2 | 0.00 | 0.00 | 0.00 | 51 | 1008.9 |
| 20260508094003 | 11 | 25 | 1.6 | 3.2 | 0.00 | 0.00 | 0.00 | 51 | 1008.8 |
| 20260508093507 | 11 | 24 | 1.6 | 3.2 | 0.00 | 0.00 | 0.00 | 52 | 1008.9 |
| 20260508093018 | 11 | 22 | 1.6 | 4.8 | 0.00 | 0.00 | 0.00 | 52 | 1009.0 |
| 20260508092506 | 11 | 22 | 1.6 | 4.8 | 0.00 | 0.00 | 0.00 | 52 | 1009.1 |
| 20260508092008 | 11 | 21 | 1.6 | 6.4 | 0.00 | 0.00 | 0.00 | 52 | 1009.1 |
| 20260508091523 | 11 | 21 | 1.6 | 8.0 | 0.00 | 0.00 | 0.00 | 52 | 1009.1 |
| 20260508091015 | 11 | 21 | 3.2 | 8.0 | 0.00 | 0.00 | 0.00 | 52 | 1009.1 |
| 20260508090512 | 11 | 23 | 3.2 | 8.0 | 0.00 | 0.00 | 0.00 | 51 | 1009.0 |
| 20260508090032 | 11 | 28 | 3.2 | 8.0 | 0.00 | 0.00 | 0.00 | 52 | 1008.9 |
| 20260508084508 | 11 | 32 | 3.2 | 9.7 | 0.00 | 0.00 | 0.00 | 54 | 1008.9 |
| 20260508083014 | 11 | 30 | 1.6 | 6.4 | 0.00 | 0.00 | 0.00 | 54 | 1009.0 |
| 20260508082508 | 11 | 30 | 1.6 | 8.0 | 0.00 | 0.00 | 0.00 | 55 | 1009.1 |
| 20260508081519 | 11 | 36 | 4.8 | 17.7 | 0.00 | 0.00 | 0.00 | 57 | 1009.1 |
| 20260508080022 | 12 | 80 | 1.6 | 6.4 | 0.00 | 0.00 | 0.00 | 51 | 1009.4 |
| 20260508075512 | 12 | 81 | 1.6 | 6.4 | 0.00 | 0.00 | 0.00 | 50 | 1009.5 |
| 20260508075013 | 12 | 82 | 1.6 | 11.3 | 0.00 | 0.00 | 0.00 | 49 | 1009.7 |
| 20260508074527 | 13 | 82 | 1.6 | 16.1 | 0.00 | 0.00 | 0.00 | 45 | 1009.6 |
| 20260508073010 | 12 | 32 | 1.6 | 8.0 | 0.00 | 0.00 | 0.00 | 50 | 1010.1 |
| 20260508072007 | 12 | 30 | 3.2 | 14.5 | 0.00 | 0.00 | 0.00 | 53 | 1010.0 |
| 20260508071516 | 12 | 67 | 4.8 | 8.0 | 0.00 | 0.00 | 0.00 | 48 | 1010.1 |
| 20260508070021 | 13 | 96 | 0.0 | 3.2 | 0.00 | 0.00 | 0.00 | 44 | 1010.7 |
| 20260508064008 | 13 | 92 | 6.4 | 16.1 | 0.00 | 0.00 | 0.00 | 40 | 1009.7 |
| 20260508063508 | 13 | 87 | 6.4 | 12.9 | 0.00 | 0.00 | 0.00 | 42 | 1009.7 |
| 20260508063012 | 13 | 69 | 1.6 | 8.0 | 0.00 | 0.00 | 0.00 | 43 | 1010.0 |
| 20260508062507 | 13 | 61 | 1.6 | 9.7 | 0.00 | 0.00 | 0.00 | 43 | 1010.1 |
| 20260508062003 | 13 | 63 | 1.6 | 9.7 | 0.00 | 0.00 | 0.00 | 42 | 1010.1 |
| 20260508061508 | 13 | 56 | 3.2 | 6.4 | 0.00 | 0.00 | 0.00 | 43 | 1010.1 |
| 20260508061006 | 13 | 68 | 1.6 | 6.4 | 0.00 | 0.00 | 0.00 | 41 | 1010.0 |
| 20260508060504 | 14 | 71 | 1.6 | 16.1 | 0.00 | 0.00 | 0.00 | 38 | 1010.0 |
| 20260508060004 | 14 | 74 | 3.2 | 16.1 | 0.00 | 0.00 | 0.00 | 38 | 1009.9 |
| 20260508055503 | 14 | 89 | 8.0 | 16.1 | 0.00 | 0.00 | 0.00 | 37 | 1009.9 |
| 20260508055003 | 13 | 85 | 4.8 | 16.1 | 0.00 | 0.00 | 0.00 | 39 | 1009.8 |
| 20260508054505 | 13 | 88 | 4.8 | 16.1 | 0.00 | 0.00 | 0.00 | 40 | 1009.7 |
| 20260508054003 | 13 | 94 | 6.4 | 16.1 | 0.00 | 0.00 | 0.00 | 40 | 1009.6 |
| 20260508053503 | 12 | 92 | 9.7 | 14.5 | 0.00 | 0.00 | 0.00 | 45 | 1009.6 |
| 20260508053008 | 12 | 76 | 1.6 | 3.2 | 0.00 | 0.00 | 0.00 | 46 | 1009.9 |
| 20260508052003 | 12 | 77 | 1.6 | 3.2 | 0.00 | 0.00 | 0.00 | 48 | 1009.8 |
| 20260508051004 | 12 | 77 | 1.6 | 3.2 | 0.00 | 0.00 | 0.00 | 46 | 1009.7 |
| 20260508050504 | 12 | 77 | 1.6 | 3.2 | 0.00 | 0.00 | 0.00 | 47 | 1009.7 |
| 20260508050013 | 12 | 77 | 0.0 | 3.2 | 0.00 | 0.00 | 0.00 | 47 | 1009.7 |
| 20260508045506 | 12 | 77 | 1.6 | 3.2 | 0.00 | 0.00 | 0.00 | 47 | 1009.8 |
| 20260508045004 | 12 | 77 | 1.6 | 3.2 | 0.00 | 0.00 | 0.00 | 48 | 1009.8 |
| 20260508044504 | 12 | 77 | 0.0 | 3.2 | 0.00 | 0.00 | 0.00 | 47 | 1009.8 |
| 20260508044004 | 12 | 77 | 1.6 | 3.2 | 0.00 | 0.00 | 0.00 | 46 | 1009.8 |
| 20260508043505 | 12 | 77 | 0.0 | 3.2 | 0.00 | 0.00 | 0.00 | 47 | 1009.9 |
| 20260508043004 | 12 | 77 | 1.6 | 3.2 | 0.00 | 0.00 | 0.00 | 46 | 1009.8 |
| 20260508042505 | 12 | 78 | 1.6 | 4.8 | 0.00 | 0.00 | 0.00 | 45 | 1009.7 |
| 20260508042003 | 13 | 78 | 1.6 | 6.4 | 0.00 | 0.00 | 0.00 | 42 | 1009.7 |
| 20260508041004 | 13 | 78 | 3.2 | 8.0 | 0.00 | 0.00 | 0.00 | 40 | 1009.7 |
| 20260508040504 | 13 | 78 | 1.6 | 4.8 | 0.00 | 0.00 | 0.00 | 40 | 1009.8 |
| 20260508040005 | 13 | 69 | 1.6 | 4.8 | 0.00 | 0.00 | 0.00 | 41 | 1009.8 |
| 20260508035506 | 12 | 69 | 1.6 | 3.2 | 0.00 | 0.00 | 0.00 | 42 | 1009.9 |
| 20260508035002 | 12 | 62 | 1.6 | 3.2 | 0.00 | 0.00 | 0.00 | 43 | 1009.7 |
| 20260508034520 | 12 | 62 | 0.0 | 3.2 | 0.00 | 0.00 | 0.00 | 43 | 1009.8 |
| 20260508034003 | 12 | 62 | 0.0 | 3.2 | 0.00 | 0.00 | 0.00 | 43 | 1009.7 |
| 20260508033502 | 12 | 62 | 1.6 | 3.2 | 0.00 | 0.00 | 0.00 | 43 | 1009.7 |
| 20260508033011 | 12 | 62 | 0.0 | 3.2 | 0.00 | 0.00 | 0.00 | 43 | 1009.7 |
| 20260508032504 | 12 | 62 | 0.0 | 3.2 | 0.00 | 0.00 | 0.00 | 43 | 1009.7 |
| 20260508032002 | 12 | 62 | 0.0 | 3.2 | 0.00 | 0.00 | 0.00 | 42 | 1009.7 |
| 20260508031508 | 13 | 62 | 1.6 | 4.8 | 0.00 | 0.00 | 0.00 | 41 | 1009.6 |
| 20260508031002 | 13 | 62 | 1.6 | 4.8 | 0.00 | 0.00 | 0.00 | 40 | 1009.6 |
| 20260508030508 | 13 | 62 | 1.6 | 4.8 | 0.00 | 0.00 | 0.00 | 40 | 1009.5 |
| 20260508025502 | 13 | 60 | 1.6 | 3.2 | 0.00 | 0.00 | 0.00 | 40 | 1009.5 |
| 20260508025002 | 13 | 60 | 1.6 | 4.8 | 0.00 | 0.00 | 0.00 | 39 | 1009.4 |
| 20260508024513 | 14 | 60 | 1.6 | 4.8 | 0.00 | 0.00 | 0.00 | 38 | 1009.5 |
| 20260508024004 | 14 | 60 | 1.6 | 4.8 | 0.00 | 0.00 | 0.00 | 37 | 1009.4 |
| 20260508023503 | 14 | 60 | 1.6 | 4.8 | 0.00 | 0.00 | 0.00 | 36 | 1009.4 |
| 20260508023008 | 15 | 60 | 0.0 | 3.2 | 0.00 | 0.00 | 0.00 | 35 | 1009.3 |
| 20260508022504 | 16 | 60 | 0.0 | 4.8 | 0.00 | 0.00 | 0.00 | 34 | 1009.2 |
| 20260508022004 | 16 | 60 | 1.6 | 4.8 | 0.00 | 0.00 | 0.00 | 32 | 1009.1 |
| 20260508021507 | 16 | 59 | 1.6 | 6.4 | 0.00 | 0.00 | 0.00 | 33 | 1009.0 |
| 20260508021003 | 16 | 58 | 1.6 | 6.4 | 0.00 | 0.00 | 0.00 | 33 | 1009.1 |
| 20260508020503 | 16 | 56 | 4.8 | 6.4 | 0.00 | 0.00 | 0.00 | 33 | 1009.1 |
| 20260508020006 | 16 | 43 | 1.6 | 4.8 | 0.00 | 0.00 | 0.00 | 34 | 1009.0 |
| 20260508015503 | 16 | 38 | 1.6 | 6.4 | 0.00 | 0.00 | 0.00 | 35 | 1009.0 |
| 20260508015005 | 16 | 37 | 1.6 | 8.0 | 0.00 | 0.00 | 0.00 | 34 | 1009.0 |
| 20260508014510 | 16 | 37 | 3.2 | 9.7 | 0.00 | 0.00 | 0.00 | 34 | 1008.9 |
| 20260508014002 | 17 | 36 | 4.8 | 9.7 | 0.00 | 0.00 | 0.00 | 34 | 1008.9 |
| 20260508013501 | 17 | 36 | 4.8 | 8.0 | 0.00 | 0.00 | 0.00 | 32 | 1008.9 |
| 20260508013006 | 18 | 35 | 4.8 | 8.0 | 0.00 | 0.00 | 0.00 | 30 | 1008.8 |
| 20260508012504 | 18 | 21 | 1.6 | 8.0 | 0.00 | 0.00 | 0.00 | 30 | 1008.8 |
| 20260508012003 | 18 | 11 | 3.2 | 9.7 | 0.00 | 0.00 | 0.00 | 30 | 1008.8 |
| 20260508011509 | 19 | 36 | 4.8 | 9.7 | 0.00 | 0.00 | 0.00 | 29 | 1008.8 |
| 20260508011002 | 20 | 31 | 4.8 | 8.0 | 0.00 | 0.00 | 0.00 | 28 | 1008.7 |
| 20260508010503 | 20 | 21 | 1.6 | 9.7 | 0.00 | 0.00 | 0.00 | 26 | 1008.7 |
| 20260508010020 | 20 | 13 | 3.2 | 9.7 | 0.00 | 0.00 | 0.00 | 25 | 1008.6 |
| 20260508005503 | 20 | 19 | 3.2 | 8.0 | 0.00 | 0.00 | 0.00 | 25 | 1008.6 |
| 20260508005003 | 21 | 15 | 3.2 | 8.0 | 0.00 | 0.00 | 0.00 | 24 | 1008.6 |
| 20260508004518 | 21 | 5 | 1.6 | 8.0 | 0.00 | 0.00 | 0.00 | 23 | 1008.6 |
| 20260508004004 | 21 | 5 | 1.6 | 9.7 | 0.00 | 0.00 | 0.00 | 23 | 1008.6 |
| 20260508003506 | 21 | 360 | 3.2 | 9.7 | 0.00 | 0.00 | 0.00 | 23 | 1008.6 |
| 20260508003009 | 21 | 348 | 1.6 | 17.7 | 0.00 | 0.00 | 0.00 | 25 | 1008.4 |
| 20260508002502 | 21 | 331 | 3.2 | 17.7 | 0.00 | 0.00 | 0.00 | 21 | 1008.3 |
| 20260508002006 | 21 | 339 | 8.0 | 16.1 | 0.00 | 0.00 | 0.00 | 22 | 1008.3 |
| 20260508001510 | 22 | 360 | 1.6 | 17.7 | 0.00 | 0.00 | 0.00 | 21 | 1008.3 |
| 20260508001002 | 22 | 5 | 4.8 | 17.7 | 0.00 | 0.00 | 0.00 | 21 | 1008.3 |
| 20260508000504 | 22 | 344 | 6.4 | 19.3 | 0.00 | 0.00 | 0.00 | 22 | 1008.3 |
| 20260508000010 | 22 | 347 | 8.0 | 19.3 | 0.00 | 0.00 | 0.00 | 21 | 1008.5 |
| 20260507235506 | 22 | 5 | 4.8 | 19.3 | 0.00 | 0.00 | 0.00 | 21 | 1008.5 |
| 20260507234515 | 22 | 335 | 6.4 | 16.1 | 0.00 | 0.00 | 0.00 | 20 | 1008.6 |
| 20260507234005 | 22 | 336 | 4.8 | 17.7 | 0.00 | 0.00 | 0.00 | 19 | 1008.7 |
| 20260507233018 | 22 | 5 | 6.4 | 19.3 | 0.00 | 0.00 | 0.00 | 20 | 1008.6 |
| 20260507232506 | 23 | 329 | 11.3 | 19.3 | 0.00 | 0.00 | 0.00 | 19 | 1008.7 |
| 20260507232006 | 23 | 314 | 1.6 | 14.5 | 0.00 | 0.00 | 0.00 | 21 | 1008.7 |
| 20260507231509 | 22 | 296 | 3.2 | 14.5 | 0.00 | 0.00 | 0.00 | 20 | 1008.7 |
| 20260507231002 | 22 | 336 | 4.8 | 16.1 | 0.00 | 0.00 | 0.00 | 20 | 1008.7 |
| 20260507230504 | 23 | 309 | 6.4 | 16.1 | 0.00 | 0.00 | 0.00 | 20 | 1008.8 |
| 20260507230009 | 23 | 349 | 3.2 | 22.5 | 0.00 | 0.00 | 0.00 | 21 | 1008.8 |
| 20260507225508 | 23 | 319 | 12.9 | 22.5 | 0.00 | 0.00 | 0.00 | 19 | 1008.8 |
| 20260507225005 | 23 | 267 | 3.2 | 19.3 | 0.00 | 0.00 | 0.00 | 19 | 1008.7 |
| 20260507224514 | 23 | 288 | 9.7 | 22.5 | 0.00 | 0.00 | 0.00 | 21 | 1008.7 |
| 20260507222004 | 23 | 267 | 3.2 | 17.7 | 0.00 | 0.00 | 0.00 | 21 | 1008.6 |
| 20260507221005 | 23 | 280 | 8.0 | 22.5 | 0.00 | 0.00 | 0.00 | 21 | 1008.8 |
| 20260507220505 | 23 | 329 | 6.4 | 14.5 | 0.00 | 0.00 | 0.00 | 21 | 1008.8 |
| 20260507220014 | 22 | 288 | 0.0 | 22.5 | 0.00 | 0.00 | 0.00 | 21 | 1008.8 |
| 20260507215504 | 22 | 286 | 11.3 | 22.5 | 0.00 | 0.00 | 0.00 | 22 | 1008.9 |
| 20260507215002 | 22 | 280 | 14.5 | 22.5 | 0.00 | 0.00 | 0.00 | 21 | 1009.0 |
| 20260507214518 | 22 | 321 | 3.2 | 16.1 | 0.00 | 0.00 | 0.00 | 22 | 1009.1 |
| 20260507214007 | 22 | 293 | 4.8 | 24.1 | 0.00 | 0.00 | 0.00 | 21 | 1009.1 |
| 20260507213508 | 22 | 336 | 6.4 | 25.7 | 0.00 | 0.00 | 0.00 | 21 | 1009.2 |
| 20260507213012 | 22 | 281 | 14.5 | 25.7 | 0.00 | 0.00 | 0.00 | 22 | 1009.1 |